Regional Weather Roundup
Issued by NWS

Home | Current Version | Previous Version | Graphics & Text | Print | Product List | Glossary On
Versions: 1 2 3 4 5 6 7 8 9 10 11 12 13 14 15 16 17 18 19 20 21 22 23 24 25 26 27 28 29 30 31 32 33 34 35 36 37 38 39 40 41 42 43 44 45 46 47 48 49 50
465
ASUS43 KMPX 232201
RWRMN
WEATHER ROUNDUP FOR MINNESOTA
NATIONAL WEATHER SERVICE TWIN CITIES/CHANHASSEN MN
400 PM CST MON JAN 23 2017


NOTE: "FAIR" INDICATES FEW OR NO CLOUDS BELOW 12,000 FEET WITH NO
SIGNIFICANT WEATHER AND/OR OBSTRUCTIONS TO VISIBILITY. N/A MEANS
CURRENT SKY AND/OR WEATHER CONDITIONS ARE NOT AVAILABLE.

MNZ060>063-068>070-232300-
   Twin Cities Metro

CITY           SKY/WX    TMP DP  RH WIND       PRES   REMARKS
TWIN CITIES    CLOUDY    35  27  72 CALM      29.82R
ST PAUL        CLOUDY    34  30  85 CALM      29.83R
CRYSTAL        CLOUDY    33  29  85 NW5       29.81R WCI  29
BLAINE         CLOUDY    36  34  93 CALM      29.81S FOG
LAKEVILLE        N/A     32  30  93 NW5       29.82R WCI  27
EDEN PRAIRIE   CLOUDY    34  29  82 W6        29.82R WCI  29
SOUTH ST PAUL  CLOUDY    34  31  88 CALM      29.82R
LAKE ELMO      CLOUDY    34  32  93 CALM      29.82S
$$
MNZ001>005-007-008-013>017-022>024-027-028-232300-
   Northwest Minnesota

CITY           SKY/WX    TMP DP  RH WIND       PRES   REMARKS
BEMIDJI        CLOUDY    32  26  78 W7        29.77R WCI  25
HALLOCK        CLOUDY    28  25  86 SW8       29.76S WCI  20
ROSEAU         CLOUDY    28  25  86 SW12      29.76R WCI  18
WARROAD        CLOUDY    30  27  86 SW8       29.76R WCI  23
THIEF RVR FALL CLOUDY    29  24  82 W9        29.80R WCI  20
CROOKSTON      CLOUDY    30  27  86 W6        29.82R WCI  24
FOSSTON        CLOUDY    28  27  93 W7        29.79R WCI  21
DETROIT LAKES  CLOUDY    32  27  80 CALM      29.80S
PARK RAPIDS    CLOUDY    32  23  69 W6        29.78R WCI  26
MAHNOMEN       CLOUDY    30  25  81 W9        29.80R WCI  22
$$
MNZ006-009>011-018-025>026-232300-
   North Central Minnesota

CITY           SKY/WX    TMP DP  RH WIND       PRES   REMARKS
BAUDETTE       CLOUDY    33  27  78 SW7       29.75R WCI  27
FLAG ISLAND    CLOUDY    32  28  86 SW7       29.73S WCI  26
INTL FALLS     CLOUDY    33  28  81 SW5       29.76R WCI  29
WASKISH        CLOUDY    32  28  86 W7        29.77R WCI  26
BIG FORK       CLOUDY    32  27  80 W6        29.77R WCI  26
LONGVILLE      CLOUDY    30  27  86 CALM      29.78R
GRAND RAPIDS   CLOUDY    32  28  85 W3        29.80R
CRANE LAKE     CLOUDY    32  30  93 CALM      29.79R
ORR            CLOUDY    32  28  86 CALM      29.75R
COOK           LGT SNOW  32  30  93 CALM      29.77R
WALKER         CLOUDY    31  25  77 W6        29.78R WCI  25
$$
MNZ012-019>021-037-232300-
   Northeast Minnesota

CITY           SKY/WX    TMP DP  RH WIND       PRES   REMARKS
DULUTH         LGT RAIN  35  33  92 W7        29.76S FOG     WCI  29
ELY            DRIZZLE   34  34 100 W3        29.75S
HIBBING        CLOUDY    32  31  96 SW3       29.77R
EVELETH        MIX PCPN  32  32  98 W6        29.78R WCI  27
DULUTH HARBOR  CLOUDY    36  36 100 W7        29.80S
TWO HARBORS    MOCLDY    39  34  81 W5        29.75S
SILVER BAY     LGT RAIN  37  36  93 CALM      29.75R
GRAND MARAIS     N/A     38  36  92 SW6       29.77R
G MARAIS ARPRT CLOUDY    32  28  86 CALM      29.73R
$$
MNZ029>031-032-039>041-046>048-054>057-064-232300-
   West Central Minnesota

CITY           SKY/WX    TMP DP  RH WIND       PRES   REMARKS
FERGUS FALLS   CLOUDY    32  25  74 NW7       29.85S WCI  26
WHEATON        CLOUDY    32  25  74 CALM      29.84S
MORRIS         CLOUDY    32  27  80 W7        29.81S WCI  26
ALEXANDRIA     CLOUDY    30  26  85 W9        29.81R WCI  22
ELBOW LAKE     CLOUDY    31  25  76 W6        29.82R HAZE    WCI  26
WADENA         CLOUDY    30  25  80 NW5       29.80R WCI  25
GLENWOOD       CLOUDY    30  27  86 NW5       29.81R WCI  25
APPLETON       CLOUDY    34  27  75 N3        29.82S
ORTONVILLE     CLOUDY    32  25  74 CALM      29.82R
MADISON        CLOUDY    36  28  75 CALM      29.82S
WILLMAR        CLOUDY    34  28  80 CALM      29.83S
$$
MNZ033>034-036-042>043-049>051-058-059-232300-
   Central Minnesota

CITY           SKY/WX    TMP DP  RH WIND       PRES   REMARKS
ST CLOUD       CLOUDY    32  28  85 NW9       29.81R WCI  24
SAUK CENTRE    CLOUDY    31  27  84 W3        29.81R
PAYNESVILLE    CLOUDY    32  31  96 N3        29.82R
AITKIN         CLOUDY    34  28  80 W3        29.78S
PINE RIVER     CLOUDY    30  25  80 W5        29.82S WCI  25
BRAINERD       CLOUDY    32  26  78 NW5       29.79S WCI  27
STAPLES        CLOUDY    30  25  80 NW5       29.80R WCI  25
LONG PRAIRIE   CLOUDY    32  28  86 CALM      29.80R
LITTLE FALLS   CLOUDY    32  27  80 W5        29.81R WCI  27
LITCHFIELD     CLOUDY    34  28  80 CALM      29.82R
BUFFALO        CLOUDY    33  28  82 W3        29.83R
MAPLE LAKE     CLOUDY    33  30  87 W3        29.83R
HUTCHINSON     CLOUDY    33  29  85 NW3       29.83S
$$
MNZ037-044-045-052-053-232300-
   East Central Minnesota

CITY           SKY/WX    TMP DP  RH WIND       PRES   REMARKS
PRINCETON      CLOUDY    34  30  86 CALM      29.81R
MORA           CLOUDY    32  30  93 NW5       29.81S WCI  27
CAMBRIDGE      CLOUDY    36  34  93 CALM      29.79S
RUSH CITY      CLOUDY    34  32  93 W5        29.81S WCI  30
MOOSE LAKE     CLOUDY    34  32  93 W3        29.77S
HINCKLEY       CLOUDY    34  34 100 W5        29.79S WCI  30
CLOQUET        CLOUDY    36  30  80 W5        29.77S
MCGREGOR       CLOUDY    32  32 100 W3        29.79S
$$
MNZ071>073-080-081-089-090-097-098-232300-
   Southwest Minnesota

CITY           SKY/WX    TMP DP  RH WIND       PRES   REMARKS
MONTEVIDEO     CLOUDY    32  32 100 CALM      29.84R
GRANITE FALLS  CLOUDY    33  29  85 CALM      29.84S
CANBY          CLOUDY    32  29  86 CALM      29.83R
MARSHALL       CLOUDY    31  28  89 CALM      29.83R
REDWOOD FALLS  CLOUDY    33  27  78 W3        29.83R
OLIVIA         CLOUDY    32  30  93 NW3       29.82S
PIPESTONE      CLOUDY    30  28  93 CALM      29.78S
WINDOM         CLOUDY    30  28  93 CALM      29.82R
WORTHINGTON    CLOUDY    30  28  92 NE6       29.81S WCI  24
JACKSON        CLOUDY    32  28  86 CALM      29.83R
TRACY          CLOUDY    32  29  88 CALM      29.82R
SLAYTON        CLOUDY    29  27  92 CALM      29.81R
$$
MNZ065>067-074>077-082>085-091>093-232300-
   South Central Minnesota

CITY           SKY/WX    TMP DP  RH WIND       PRES   REMARKS
MANKATO        CLOUDY    32  28  85 NW6       29.83S WCI  26
NEW ULM        CLOUDY    32  30  93 W3        29.83R
ST JAMES       CLOUDY    30  30 100 CALM      29.85R FOG
FAIRMONT       CLOUDY    32  30  92 N3        29.84R
GLENCOE        CLOUDY    34  31  88 W6        29.82R WCI  29
OWATONNA       CLOUDY    32  27  80 W6        29.82S WCI  26
WASECA         CLOUDY    32  28  86 NW5       29.83S WCI  27
ALBERT LEA     CLOUDY    32  28  86 NW3       29.82R
$$
MNZ078>079-086>088-094>096-232300-
   Southeast Minnesota

CITY           SKY/WX    TMP DP  RH WIND       PRES   REMARKS
ROCHESTER      CLOUDY    32  30  92 W10       29.81R WCI  24
RED WING       CLOUDY    36  28  75 W6        29.82R
STANTON        CLOUDY    34  29  83 W5        29.81R WCI  30
DODGE CENTER   CLOUDY    30  28  93 CALM      29.81R
WINONA         CLOUDY    36  34  93 CALM      29.82S
AUSTIN         CLOUDY    32  27  80 W3        29.82R
PRESTON        CLOUDY    32  29  90 NW7       29.81R WCI  26
$$
ABBREVIATIONS USED IN REMARKS
   TC - TEMPERATURES IN CELSIUS
  WCI - WIND CHILL INDEX
   HX - HEAT INDEX
  VSB - VISIBILITY
$$




USA.gov is the U.S. government's official web portal to all federal, state and local government web resources and services.